View from above orbital plane
|
View from above satellite
|
Ground track
|
The orbit data is extracted from the following two-line orbital elements,
1 27640U 03001A 21018.61920009 -.00000012 00000-0 15149-4 0 9990
2 27640 98.7246 30.7433 0014895 135.4379 333.9437 14.19058654933938
Epoch (UTC): | 18 January 2021 14:51:38 |
Eccentricity: | 0.0014895 |
inclination: | 98.7246° |
perigee height: | 818 km |
apogee height: | 839 km |
right ascension of ascending node: | 30.7433° |
argument of perigee: | 135.4379° |
revolutions per day: | 14.19058654 |
mean anomaly at epoch: | 333.9437° |
orbit number at epoch: | 93393 |
The dashed part of the orbit path shows where the satellite is in the earth's shadow,
|
|